Location: Beisberg
(50.7834°N, 4.2094°E)
Time: 10:29:13
(UTC+00:00)

Daily predictions for brighter satellites

Satellite Brightness Start Highest point End
(mag) Time Altitude Azimuth Time Altitude Azimuth Time Altitude Azimuth
IRS-1C Rocket 4.1 16:47:16 10° SSE 16:52:29 74° ENE 16:57:46 10° NNW
NOAA 12 4.2 16:47:50 10° SE 16:52:54 54° ENE 16:58:02 10° N
Starlink A 2.9 16:51:48 10° WSW 16:54:56 75° NNW 16:58:05 10° ENE
AQUARIUS 4.1 16:51:18 10° SSE 16:55:46 72° ENE 17:00:16 10° N
Starlink R 2.9 16:53:42 10° W 16:56:50 74° NNW 16:59:59 10° ENE
Cosmos 1626 2.2 16:53:31 10° S 16:57:09 60° E 17:00:50 10° NNE
Cosmos 1939 Rocket 4.5 16:55:07 10° E 16:57:24 15° ENE 16:59:42 10° NNE
Cosmos 2082 Rocket 4.4 16:55:24 10° NW 16:57:38 12° NNW 16:59:52 10° N
Starlink K 2.9 16:55:35 10° W 16:58:44 72° NNW 17:01:52 10° ENE
SJ 16-02 3.6 16:55:53 10° WSW 16:59:16 21° NW 17:02:41 10° N
Starlink M 3.0 16:57:26 10° W 17:00:34 71° NNW 17:03:43 10° ENE
Cosmos 1607 4.0 16:55:09 10° SW 17:01:18 85° NW 17:07:32 10° NE
Cosmos 1300 2.7 16:57:41 10° N 17:01:32 87° W 17:05:21 10° S
Cosmos 494 Rocket 4.1 16:57:56 10° NNW 17:03:05 83° WSW 17:08:12 10° SSE
Cosmos 2237 Rocket 2.2 16:58:23 10° NNW 17:04:03 85° ENE 17:09:41 10° SSE
Okean O Rocket 3.3 17:00:19 10° SSW 17:04:28 39° W 17:08:41 10° NNW
Nadezhda 3 Rocket 4.0 16:58:45 10° N 17:05:05 81° E 17:11:26 10° SSE
ATLAS CENTAUR R/B 3.8 17:00:14 10° WSW 17:05:34 82° NNW 17:21:00 10° ENE
Cosmos 1825 Rocket 4.4 17:02:22 10° SSE 17:06:04 28° E 17:09:46 10° NNE
PSLV R/B 3.9 17:02:25 10° NNE 17:06:31 73° ESE 17:10:36 10° S
Starlink AR 2.6 17:04:07 10° W 17:06:40 58° NNW 17:09:02 12° ENE
SMAP 3.2 17:03:15 10° SSE 17:07:54 82° WSW 17:12:35 10° NNW
NOSS 2-1 (C) 4.3 17:02:56 10° NW 17:07:58 81° NE 17:15:01 10° SE
Okean-O 2.7 17:04:53 10° SSE 17:09:12 55° ENE 17:13:33 10° N
COBE Rocket 4.3 17:05:43 10° N 17:10:52 74° WNW 17:16:03 10° SSW
ATLAS 5 CENTAUR R/B 3.0 17:07:36 10° W 17:11:40 33° NNW 17:16:16 10° NE
NOSS 2-1 (D) 4.3 17:06:44 10° NW 17:11:48 85° NE 17:18:56 10° SE
Starlink AS 2.9 17:10:01 10° W 17:12:55 62° NNW 17:15:26 13° ENE
CSL-04 Rocket 4.3 17:08:03 10° SE 17:12:57 34° ENE 17:17:55 10° N
Starlink BA 2.9 17:10:22 10° W 17:13:17 62° NNW 17:15:47 13° ENE
Starlink AU 2.9 17:10:33 10° W 17:13:27 62° NNW 17:15:58 13° ENE
Starlink AT 2.9 17:10:49 10° W 17:13:44 61° N 17:16:13 13° ENE
Starlink BB 2.9 17:11:02 10° W 17:13:57 61° N 17:16:26 13° ENE
Starlink BC 2.9 17:11:18 10° W 17:14:13 61° N 17:16:41 13° ENE
Starlink BK 2.9 17:11:20 10° W 17:14:14 61° NNW 17:16:42 13° ENE
Cosmos 2333 Rocket 4.2 17:09:29 10° NW 17:14:35 34° WSW 17:19:37 10° S
Starlink AY 2.9 17:11:45 10° W 17:14:40 61° N 17:17:07 14° ENE
Starlink AW 2.9 17:11:59 10° W 17:14:53 61° N 17:17:19 14° ENE
Starlink BJ 2.9 17:12:12 10° W 17:15:06 61° N 17:17:33 14° ENE
Starlink AV 2.9 17:12:25 10° W 17:15:20 61° N 17:17:45 14° ENE
Cosmos 1455 2.9 17:12:00 10° N 17:15:26 30° ENE 17:18:50 10° SE
Starlink AQ 2.9 17:12:32 10° W 17:15:28 61° N 17:17:55 14° ENE
Starlink BD 2.9 17:12:37 10° W 17:15:32 61° N 17:17:57 14° ENE
Starlink BE 2.9 17:12:48 10° W 17:15:43 61° N 17:18:10 14° ENE
Starlink BM 2.9 17:13:05 10° W 17:15:59 61° N 17:18:23 14° ENE
Cosmos 1689 Rocket 3.9 17:13:28 10° N 17:16:09 31° WNW 17:18:48 10° SW
Starlink AX 2.9 17:13:21 10° W 17:16:15 60° N 17:18:38 14° ENE
Starlink BH 2.9 17:13:32 10° W 17:16:27 60° N 17:18:50 14° ENE
Starlink AZ 2.9 17:13:42 10° W 17:16:37 60° N 17:18:59 14° ENE
Starlink BG 2.9 17:13:59 10° W 17:16:53 60° N 17:19:15 14° ENE
Starlink BF 2.9 17:14:12 10° W 17:17:06 60° N 17:19:28 14° ENE
CZ-4C R/B 4.0 17:10:14 10° NW 17:17:08 51° WSW 17:24:57 10° SSE
Starlink BL 2.9 17:14:24 10° W 17:17:20 60° N 17:19:42 14° ENE
Starlink AH 2.9 17:14:40 10° W 17:17:34 60° N 17:19:54 15° ENE
Starlink AC 2.9 17:14:51 10° W 17:17:45 60° N 17:20:04 15° ENE
Ariane Rocket 4.3 17:14:34 10° E 17:18:01 19° NE 17:21:29 10° NNE
Starlink X 2.9 17:15:08 10° W 17:18:02 60° N 17:20:22 15° ENE
Starlink AE 2.9 17:15:19 10° W 17:18:15 60° N 17:20:36 15° ENE
Starlink Z 2.9 17:15:35 10° W 17:18:28 60° N 17:20:47 15° ENE
Starlink AK 2.9 17:15:41 10° W 17:18:36 60° N 17:20:53 15° ENE
ATLAS 5 CENTAUR R/B 3.5 17:15:37 10° NW 17:18:50 33° NNE 17:27:24 10° E
Starlink AL 2.9 17:16:02 10° W 17:18:57 59° N 17:21:14 15° ENE
Starlink AD 2.9 17:16:08 10° W 17:19:03 59° N 17:21:19 15° ENE
CZ-2D R/B 4.4 17:16:32 10° ESE 17:19:32 22° ENE 17:22:33 10° NNE
Starlink Y 2.9 17:16:43 10° W 17:19:37 59° N 17:21:52 15° ENE
Starlink AG 2.9 17:16:51 10° W 17:19:45 59° N 17:22:00 15° ENE
Starlink W 2.9 17:17:01 10° W 17:19:56 59° N 17:22:12 15° ENE
Starlink AJ 2.9 17:17:17 10° W 17:20:11 59° N 17:22:26 15° ENE
Starlink AM 2.9 17:17:49 10° W 17:20:43 59° N 17:22:56 16° ENE
Starlink AP 2.9 17:17:56 10° W 17:20:51 59° N 17:23:03 16° ENE
Starlink AA 2.9 17:18:10 10° W 17:21:03 59° N 17:23:16 16° ENE
Starlink AF 2.9 17:18:30 10° W 17:21:24 59° N 17:23:35 16° ENE
Starlink AB 2.9 17:18:42 10° W 17:21:36 59° N 17:23:47 16° ENE
Starlink AN 2.9 17:18:51 10° W 17:21:45 58° N 17:23:56 16° ENE
Cosmos 2221 4.1 17:21:40 10° NNE 17:24:07 15° ENE 17:25:05 14° ENE
SKYMED 2 4.2 17:21:10 10° NNE 17:25:12 35° E 17:29:12 10° SSE
SL-8 Rocket 4.3 17:20:26 10° SSE 17:26:19 43° E 17:32:11 10° NNE
USA 234 3.9 17:20:52 10° SE 17:27:18 58° SW 17:33:45 10° WNW
SL-16 R/B 2.3 17:22:13 10° NNW 17:27:50 56° NE 17:33:24 10° SE
ISS -2.3 17:25:08 10° SSW 17:27:58 25° SE 17:30:01 15° E
ATLAS CENTAUR R/B 1.8 17:24:56 10° NNW 17:28:52 38° NE 17:32:08 12° ESE
Cosmos 1271 Rocket 4.2 17:26:55 10° SW 17:30:25 37° WNW 17:33:58 10° N
Cosmos-2242 3.0 17:27:03 10° N 17:31:20 59° ENE 17:35:34 10° SSE
CZ-4 R/B 1.6 17:28:38 10° SE 17:32:35 49° ENE 17:36:37 10° N
Cosmos 1812 Rocket 4.3 17:28:40 10° NNW 17:33:04 57° W 17:37:27 10° S
Timation 2 Rocket 4.4 17:27:21 10° SW 17:33:28 64° NW 17:39:53 10° NNE
Cosmos 2219 3.2 17:31:53 10° SSW 17:37:30 78° ESE 17:43:10 10° NNE
Cosmos 2341 Rocket 4.0 17:32:18 10° S 17:38:37 70° E 17:44:56 10° NNE
Cosmos 2082 4.3 17:33:38 10° S 17:38:39 35° ESE 17:42:52 14° NE
Iridium 96 3.4 17:41:37 10° N 17:43:58 62° E 17:46:24 10° SSE
YAOGAN 1 2.6 17:40:27 10° SSE 17:44:40 53° ENE 17:48:54 10° N
Cosmos 2297 Rocket 2.2 17:40:43 10° SSW 17:46:19 66° ESE 17:51:51 11° NE
Cosmos 2251 Rocket 3.5 17:43:37 10° NNW 17:48:53 61° ENE 17:54:08 10° SE
H-2A R/B 3.2 17:49:40 20° ENE 17:50:05 20° NE 17:53:44 10° N
ADEOS Rocket 4.0 17:45:20 10° NNE 17:51:07 30° E 17:57:19 10° SSE
Cosmos 1328 4.2 17:48:02 10° SSE 17:51:49 42° E 17:55:21 12° NNE
Starlink T 3.1 17:48:56 10° W 17:51:59 54° N 17:53:06 32° ENE
Meteor 1-21 Rocket 4.2 17:46:31 10° S 17:52:08 81° E 17:57:55 10° NNE
Meteor 2-10 Rocket 3.4 17:48:11 10° N 17:53:35 79° ENE 17:58:42 10° SSE
Cosmos 1356 Rocket 3.7 17:49:48 10° N 17:53:39 40° ENE 17:57:30 10° SE
Starlink N 3.1 17:50:37 10° W 17:53:40 54° N 17:54:43 33° ENE
Starlink Q 3.1 17:52:34 10° W 17:55:37 54° N 17:56:36 35° NE
Starlink P 3.1 17:54:21 10° W 17:57:24 54° N 17:58:18 37° NE
ERBS 2.2 17:54:06 10° WSW 17:57:26 87° NNW 17:58:46 34° NE
SL-8 R/B 4.5 17:53:04 10° SW 17:57:33 39° SSE 17:59:55 23° ESE
CZ-4 R/B 4.5 17:54:50 10° SSE 17:58:57 81° WSW 18:03:06 10° NNW
Cosmos 2227 Rocket 2.1 17:53:32 10° SSW 17:59:10 75° ESE 18:04:16 13° NNE
Starlink U 3.1 17:56:07 10° W 17:59:10 53° N 18:00:01 38° NE
USA 32 4.2 17:54:48 10° S 18:00:02 79° W 18:05:19 10° N
Cosmos 1339 Rocket 4.4 17:54:11 10° N 18:00:18 82° E 18:06:27 10° SSE
Starlink B 3.1 17:57:56 10° W 18:00:59 53° N 18:01:45 40° NE
NOAA 11 4.1 17:55:41 10° SSE 18:01:09 71° ENE 18:06:38 10° N
ARGOS 4.2 18:02:01 23° ENE 18:02:19 23° ENE 18:06:31 10° N
Cosmos 864 Rocket 4.4 17:57:45 10° S 18:03:45 60° E 18:09:47 10° NNE
Cosmos 2218 Rocket 4.0 17:59:13 10° S 18:05:30 68° E 18:11:52 10° NNE
Cosmos 724 4.4 17:59:34 10° SW 18:05:33 80° NW 18:10:12 17° NE
Starlink D 3.1 18:08:57 10° WNW 18:12:01 54° N 18:12:22 50° NNE
Cosmos 1943 3.8 18:07:59 10° NNW 18:13:08 35° NE 18:14:37 30° ENE
COSMO-SKYMED 1 2.6 18:09:04 10° NNE 18:13:27 81° WNW 18:17:46 10° SSW
Starlink S 3.1 18:10:50 10° WNW 18:13:55 54° N 18:14:11 51° NNE
Cosmos 1953 Rocket 3.5 18:10:49 10° S 18:15:19 90° NNW 18:19:51 10° N
Starlink C 3.1 18:12:39 10° WNW 18:15:44 54° N 18:15:56 53° NNE
Cosmos 1842 Rocket 3.6 18:12:36 10° N 18:17:01 53° ENE 18:21:24 10° SSE
Starlink E 3.1 18:14:34 10° WNW 18:17:39 54° N 18:17:46 54° NNE
Starlink J 3.1 18:16:28 10° WNW 18:19:32 54° N 18:19:35 54° N
Cosmos 1758 Rocket 4.4 18:15:45 10° SSW 18:19:56 50° WNW 18:24:11 10° N
Starlink V 3.1 18:18:19 10° WNW 18:21:24 54° N 18:21:24 54° N
Cosmos 1959 Rocket 4.4 18:15:52 10° S 18:22:02 85° E 18:28:11 10° N
Starlink H 3.2 18:20:16 10° WNW 18:23:15 54° N 18:23:15 54° N
Starlink F 3.2 18:22:10 10° WNW 18:25:05 54° NNW 18:25:05 54° NNW
Cosmos 1703 3.2 18:21:43 10° S 18:25:41 88° W 18:28:43 17° N
Cosmos 44 2.9 18:21:25 10° SSW 18:25:58 78° SE 18:27:20 43° NE
Starlink G 3.3 18:24:04 10° WNW 18:26:54 53° NNW 18:26:54 53° NNW
Starlink L 3.4 18:25:59 10° WNW 18:28:46 52° NNW 18:28:46 52° NNW
CSL-04 Debris 4.5 18:24:30 10° S 18:29:52 69° WSW 18:35:18 10° NNW
Starlink A 3.5 18:27:53 10° WNW 18:30:35 50° NNW 18:30:35 50° NNW
Cosmos 1939 Rocket 3.1 18:27:55 10° S 18:31:50 70° W 18:35:50 10° NNW
CZ-2C R/B 3.9 18:32:42 34° NE 18:32:42 34° NE 18:37:16 10° N
Cosmos 407 Rocket 3.8 18:27:10 10° NNW 18:32:14 42° ENE 18:32:31 42° ENE
Starlink R 3.5 18:29:47 10° WNW 18:32:25 49° NW 18:32:25 49° NW
USA 267 3.5 18:30:18 28° NE 18:33:52 64° NNW 18:40:19 10° W
Starlink K 3.6 18:31:41 10° WNW 18:34:15 47° NW 18:34:15 47° NW
BREEZE-M DEB (TANK) 3.7 18:33:46 10° SW 18:35:08 30° SSW 18:35:08 30° SSW
Starlink M 3.7 18:33:32 10° WNW 18:36:01 45° NW 18:36:01 45° NW
Cosmos 2366 rocket 4.1 18:30:28 10° SSW 18:36:41 80° W 18:43:03 10° N
Meteor 2-12 Rocket 4.3 18:33:33 10° S 18:39:31 66° E 18:45:31 10° NNE
BREEZE-M DEB (TANK) 4.2 18:22:58 10° W 18:41:11 82° S 18:43:09 43° ESE
USA 116 4.4 18:52:53 40° WSW 18:52:53 40° WSW 18:55:15 10° SW
Ariane Rocket 2.9 18:51:18 10° SSE 18:56:22 84° WSW 19:01:30 10° NNW
ATLAS 5 CENTAUR R/B 3.7 18:54:08 10° NW 18:57:48 20° N 18:58:33 20° N
Cosmos 2221 2.6 18:57:57 10° NNW 19:02:03 73° WNW 19:02:03 73° WNW
ISS -1.9 19:01:07 10° WSW 19:02:59 30° WSW 19:02:59 30° WSW
ATLAS CENTAUR R/B 2.7 19:04:05 10° NW 19:07:45 33° WSW 19:08:23 31° SW
CZ-4 R/B 4.1 19:04:53 10° SW 19:07:53 20° W 19:10:57 10° NW
SL-16 R/B 4.0 19:06:48 10° NW 19:11:39 30° WSW 19:16:28 10° SSW
Cosmos 2082 4.5 19:17:11 10° SW 19:22:37 49° NW 19:24:47 33° N
Cosmos 1603 3.8 19:19:03 10° NNW 19:24:44 71° WSW 19:25:18 66° SSW
Cosmos 614 Rocket 4.2 19:20:21 10° NNW 19:25:00 67° WNW 19:25:00 67° WNW
H-2A R/B 2.6 19:30:16 50° NNW 19:30:16 50° NNW 19:34:06 10° NNW
Cosmos 2297 Rocket 3.8 19:25:54 10° WSW 19:30:50 30° NW 19:33:40 20° N
ADEOS Rocket 3.6 19:30:30 10° N 19:36:59 66° WNW 19:44:09 10° SSW
Cosmos 2263 Rocket 4.3 19:35:47 10° SSW 19:36:32 14° SSW 19:36:32 14° SSW
ARGOS 3.9 19:43:31 49° NW 19:43:31 49° NW 19:47:31 10° NNW
Cosmos 2227 Rocket 3.9 19:39:02 10° W 19:43:48 27° NW 19:46:07 21° N
Cosmos 1821 Rocket 4.3 19:38:31 10° SSW 19:44:49 63° WNW 19:51:06 10° N
Cosmos 1943 4.0 19:51:57 10° NW 19:56:28 47° WNW 19:56:28 47° WNW
NOSS 3-3 (A) 4.5 19:54:34 10° NW 20:01:53 77° SW 20:01:53 77° SW
NOSS 3-3 (C) 4.5 19:54:40 10° NW 20:01:57 77° WSW 20:01:57 77° WSW
BREEZE-M DEB (TANK) 4.5 19:39:12 10° WNW 20:04:47 65° SSW 20:05:42 62° S
USA 267 4.0 20:17:39 47° NNW 20:17:39 47° NNW 20:22:45 10° WNW
